QPF
0.00 0.00 0.00 0.00 0.00 0.00 0.00 0.00 0.00 0.00 0.00 0.00 0.00 0.00 0.00 0.00 0.00 0.00 0.00 0.00 0.00 0.00 0.00 0.00 0.00 0.00 0.00 0.00 0.00 0.00 0.00 0.00 0.00 0.00 0.00 0.00 0.00 0.00 0.00 0.00 0.00 0.00 0.00
0.00 0.00 0.00 0.00 0.00 0.00 0.00 0.00 0.00 0.00 0.00 0.00 0.00 0.00 0.00 0.00 0.00 0.00 0.00 0.00 0.00 0.00 0.00 0.00 0.00 0.00 0.00 0.00 0.00 0.00 0.00 0.00 0.00 0.00 0.00 0.00 0.00 0.00 0.00 0.00 0.00 0.00 0.00
0.00 0.00 0.00 0.00 0.00 0.00 0.00 0.00 0.00 0.00 0.00 0.00 0.00 0.00 0.00 0.00 0.00 0.00 0.00 0.00 0.00 0.00 0.00 0.00 0.00 0.00 0.00 0.00 0.00 0.00 0.00 0.00 0.00 0.00 0.00 0.00 0.00 0.00 0.00 0.00 0.00 0.00 0.00
0.00 0.00 0.00 0.00 0.00 0.00 0.00 0.00 0.00 0.00 0.00 0.00 0.00 0.00 0.00 0.00 0.00 0.00 0.00 0.00 0.00 0.00 0.00 0.00 0.00 0.00 0.00 0.00 0.00 0.01 0.00 0.00 0.00 0.00 0.00 0.00 0.00 0.00 0.00 0.00 0.00 0.00 0.00
0.00 0.00 0.00 0.00 0.00 0.00 0.00 0.00 0.00 0.00 0.00 0.00 0.00 0.00 0.00 0.00 0.00 0.00 0.00 0.00 0.00 0.00 0.00 0.00 0.00 0.00 0.00 0.00 0.00 0.02 0.03 0.01 0.00 0.00 0.00 0.00 0.00 0.00 0.00 0.00 0.00 0.00 0.00
0.00 0.00 0.00 0.00 0.00 0.00 0.00 0.00 0.00 0.00 0.00 0.00 0.00 0.00 0.00 0.00 0.00 0.00 0.00 0.00 0.00 0.00 0.00 0.00 0.00 0.00 0.00 0.00 0.00 0.00 0.01 0.04 0.04 0.00 0.00 0.00 0.00 0.00 0.00 0.00 0.00 0.00 0.00
0.00 0.00 0.00 0.00 0.00 0.00 0.00 0.00 0.00 0.01 0.00 0.02 0.01 0.00 0.00 0.00 0.00 0.00 0.00 0.00 0.00 0.00 0.00 0.00 0.00 0.00 0.00 0.00 0.00 0.00 0.00 0.02 0.04 0.05 0.02 0.00 0.00 0.00 0.00 0.00 0.00 0.00 0.00
0.00 0.00 0.00 0.00 0.00 0.00 0.00 0.00 0.01 0.00 0.00 0.00 0.00 0.01 0.00 0.00 0.00 0.00 0.00 0.00 0.00 0.00 0.00 0.00 0.00 0.00 0.00 0.00 0.00 0.00 0.00 0.02 0.04 0.07 0.10 0.09 0.03 0.00 0.00 0.00 0.00 0.00 0.01
0.00 0.00 0.00 0.00 0.00 0.00 0.00 0.01 0.01 0.01 0.01 0.00 0.00 0.01 0.01 0.00 0.00 0.00 0.00 0.00 0.00 0.00 0.00 0.00 0.00 0.00 0.00 0.00 0.00 0.00 0.00 0.00 0.02 0.05 0.06 0.09 0.14 0.08 0.02 0.00 0.00 0.00 0.00
0.00 0.00 0.00 0.00 0.00 0.00 0.00 0.00 0.00 0.00 0.01 0.00 0.00 0.00 0.00 0.00 0.00 0.00 0.00 0.00 0.00 0.00 0.00 0.00 0.00 0.00 0.00 0.00 0.00 0.00 0.00 0.00 0.00 0.00 0.01 0.04 0.09 0.14 0.11 0.03 0.01 0.00 0.00
0.00 0.00 0.00 0.00 0.00 0.00 0.00 0.00 0.00 0.00 0.00 0.00 0.00 0.00 0.00 0.00 0.00 0.01 0.00 0.00 0.00 0.00 0.00 0.00 0.00 0.00 0.00 0.00 0.00 0.00 0.00 0.00 0.00 0.00 0.00 0.00 0.04 0.12 0.14 0.10 0.03 0.02 0.01
0.00 0.00 0.00 0.00 0.00 0.00 0.00 0.00 0.00 0.00 0.00 0.00 0.00 0.01 0.01 0.00 0.00 0.00 0.00 0.00 0.00 0.00 0.00 0.00 0.00 0.00 0.00 0.00 0.00 0.00 0.00 0.00 0.00 0.00 0.00 0.00 0.01 0.09 0.12 0.12 0.07 0.05 0.04
0.00 0.00 0.00 0.00 0.00 0.00 0.00 0.00 0.00 0.00 0.00 0.00 0.00 0.00 0.01 0.01 0.00 0.00 0.00 0.00 0.00 0.00 0.00 0.00 0.00 0.00 0.00 0.00 0.00 0.00 0.00 0.00 0.00 0.00 0.00 0.00 0.01 0.01 0.02 0.04 0.08 0.11 0.12
0.00 0.00 0.00 0.00 0.00 0.00 0.00 0.00 0.00 0.00 0.00 0.01 0.01 0.01 0.01 0.00 0.00 0.00 0.00 0.00 0.00 0.00 0.00 0.00 0.00 0.00 0.00 0.00 0.00 0.00 0.00 0.00 0.00 0.00 0.00 0.00 0.00 0.00 0.00 0.01 0.04 0.07 0.04
0.00 0.00 0.00 0.00 0.00 0.00 0.00 0.00 0.00 0.00 0.00 0.00 0.00 0.00 0.00 0.00 0.00 0.00 0.00 0.00 0.00 0.00 0.00 0.00 0.00 0.00 0.00 0.00 0.00 0.00 0.00 0.00 0.00 0.00 0.00 0.00 0.00 0.00 0.00 0.00 0.01 0.01 0.00
0.00 0.00 0.00 0.00 0.00 0.00 0.00 0.00 0.00 0.00 0.00 0.00 0.00 0.00 0.00 0.00 0.00 0.00 0.00 0.00 0.00 0.00 0.00 0.00 0.00 0.00 0.00 0.00 0.00 0.00 0.00 0.00 0.00 0.00 0.00 0.00 0.00 0.00 0.00 0.00 0.00 0.00 0.00
0.00 0.00 0.00 0.00 0.00 0.00 0.00 0.00 0.00 0.00 0.00 0.00 0.00 0.00 0.00 0.00 0.00 0.00 0.00 0.00 0.00 0.00 0.00 0.00 0.00 0.00 0.00 0.00 0.00 0.00 0.00 0.00 0.00 0.00 0.00 0.00 0.00 0.00 0.00 0.00 0.00 0.00 0.00
0.00 0.00 0.00 0.00 0.00 0.00 0.00 0.00 0.00 0.00 0.00 0.00 0.00 0.00 0.00 0.00 0.00 0.00 0.00 0.00 0.00 0.00 0.00 0.00 0.00 0.00 0.00 0.00 0.00 0.00 0.00 0.00 0.00 0.00 0.00 0.00 0.00 0.00 0.00 0.00 0.00 0.00 0.00
0.00 0.00 0.00 0.00 0.00 0.00 0.00 0.00 0.00 0.00 0.00 0.00 0.00 0.00 0.00 0.00 0.00 0.00 0.00 0.00 0.00 0.00 0.00 0.00 0.00 0.00 0.00 0.00 0.00 0.00 0.00 0.00 0.00 0.00 0.00 0.00 0.00 0.00 0.00 0.00 0.00 0.00 0.00
0.00 0.00 0.00 0.00 0.00 0.00 0.00 0.00 0.00 0.00 0.00 0.00 0.00 0.00 0.00 0.00 0.00 0.00 0.00 0.00 0.00 0.00 0.00 0.00 0.00 0.00 0.00 0.00 0.00 0.00 0.00 0.00 0.00 0.00 0.00 0.00 0.00 0.00 0.00 0.00 0.00 0.00 0.00
0.00 0.00 0.00 0.00 0.00 0.00 0.00 0.00 0.00 0.00 0.00 0.00 0.00 0.00 0.00 0.00 0.00 0.00 0.00 0.00 0.00 0.00 0.00 0.00 0.00 0.00 0.00 0.00 0.00 0.00 0.00 0.00 0.00 0.00 0.00 0.00 0.00 0.00 0.00 0.00 0.00 0.00 0.00
0.00 0.00 0.00 0.00 0.00 0.00 0.00 0.00 0.00 0.00 0.00 0.00 0.00 0.00 0.00 0.00 0.00 0.00 0.00 0.00 0.00 0.00 0.00 0.00 0.00 0.00 0.00 0.00 0.00 0.00 0.00 0.00 0.00 0.00 0.00 0.00 0.00 0.00 0.00 0.00 0.00 0.00 0.00
0.00 0.00 0.00 0.00 0.00 0.00 0.00 0.00 0.00 0.00 0.00 0.00 0.00 0.00 0.00 0.00 0.00 0.00 0.00 0.00 0.00 0.00 0.00 0.00 0.00 0.00 0.00 0.00 0.00 0.00 0.00 0.00 0.00 0.00 0.00 0.00 0.00 0.00 0.00 0.00 0.00 0.00 0.00
0.00 0.00 0.00 0.00 0.00 0.00 0.00 0.00 0.00 0.00 0.00 0.00 0.00 0.00 0.00 0.00 0.00 0.00 0.00 0.00 0.00 0.00 0.00 0.00 0.00 0.00 0.00 0.00 0.00 0.00 0.00 0.00 0.00 0.00 0.00 0.00 0.00 0.00 0.00 0.00 0.00 0.00 0.00
0.00 0.00 0.00 0.00 0.00 0.00 0.00 0.00 0.00 0.00 0.00 0.00 0.00 0.00 0.00 0.00 0.00 0.00 0.00 0.00 0.00 0.00 0.00 0.00 0.00 0.00 0.00 0.00 0.00 0.00 0.00 0.00 0.00 0.00 0.00 0.00 0.00 0.00 0.00 0.00 0.00 0.00 0.00
0.00 0.00 0.00 0.00 0.00 0.00 0.00 0.00 0.00 0.00 0.00 0.00 0.00 0.00 0.00 0.00 0.00 0.00 0.00 0.00 0.00 0.00 0.00 0.00 0.00 0.00 0.00 0.00 0.00 0.00 0.00 0.00 0.00 0.00 0.00 0.00 0.00 0.00 0.00 0.00 0.00 0.00 0.00
MSLP
1018.40 1018.39 1018.45 1018.63 1018.76 1018.88 1018.96 1019.01 1019.18 1019.18 1019.27 1019.27 1019.33 1019.43 1019.52 1019.47 1019.38 1019.39 1019.55 1019.88 1020.12 1020.32 1020.34 1020.18 1020.29 1020.52 1020.77 1021.00 1021.21 1021.34 1021.53 1021.72 1021.81 1021.87 1021.88 1021.85 1021.78 1021.72 1021.65 1021.70 1021.66 1021.60 1021.66
1018.21 1018.43 1018.37 1018.61 1018.71 1018.85 1018.91 1018.98 1018.95 1019.01 1019.08 1019.03 1019.05 1019.03 1019.10 1019.14 1019.22 1019.31 1019.39 1019.46 1019.80 1019.97 1020.13 1020.08 1020.02 1020.12 1020.38 1020.48 1020.75 1020.97 1021.25 1021.51 1021.72 1021.79 1021.86 1021.89 1021.90 1021.88 1021.87 1021.84 1021.82 1021.83 1021.85
1018.03 1018.24 1018.35 1018.35 1018.55 1018.68 1018.81 1018.85 1018.97 1019.02 1019.09 1018.99 1018.98 1018.76 1018.71 1018.74 1018.79 1018.92 1019.15 1019.23 1019.29 1019.60 1019.68 1019.78 1019.77 1019.83 1019.92 1020.03 1020.20 1020.42 1020.66 1020.95 1021.28 1021.63 1021.69 1021.81 1021.87 1021.94 1021.95 1021.95 1021.93 1021.96 1022.04
1017.86 1017.98 1018.13 1018.26 1018.36 1018.50 1018.71 1018.79 1018.89 1018.90 1018.89 1018.86 1018.70 1018.45 1018.22 1018.32 1018.54 1018.62 1018.65 1018.69 1018.83 1018.90 1019.15 1019.24 1019.36 1019.51 1019.55 1019.61 1019.72 1019.88 1020.20 1020.47 1020.64 1020.89 1021.27 1021.48 1021.64 1021.79 1021.87 1021.96 1022.00 1022.06 1022.10
1017.55 1017.76 1017.85 1017.94 1018.07 1018.27 1018.42 1018.58 1018.64 1018.68 1018.65 1018.58 1018.53 1018.38 1018.22 1018.21 1018.13 1018.11 1018.12 1018.14 1018.16 1018.39 1018.67 1018.67 1018.93 1019.12 1019.26 1019.30 1019.38 1019.41 1019.60 1019.92 1020.29 1020.53 1020.79 1021.02 1021.25 1021.49 1021.68 1021.79 1021.86 1021.92 1022.08
1017.40 1017.52 1017.51 1017.67 1017.79 1017.98 1018.20 1018.33 1018.46 1018.54 1018.61 1018.55 1018.58 1018.39 1018.24 1018.14 1017.97 1017.87 1017.73 1017.64 1017.76 1017.89 1018.13 1018.42 1018.58 1018.75 1018.83 1018.96 1019.14 1019.20 1019.21 1019.35 1019.79 1020.12 1020.43 1020.74 1020.97 1021.17 1021.39 1021.55 1021.73 1021.87 1021.98
1017.06 1017.34 1017.46 1017.44 1017.68 1017.99 1018.09 1018.10 1018.20 1018.42 1018.53 1018.54 1018.66 1018.41 1018.10 1017.84 1017.58 1017.56 1017.48 1017.49 1017.43 1017.65 1018.02 1018.11 1018.22 1018.31 1018.28 1018.56 1018.72 1018.93 1019.03 1018.99 1019.24 1019.56 1019.82 1020.13 1020.45 1020.75 1020.96 1021.20 1021.34 1021.52 1021.74
1017.05 1017.22 1017.38 1017.55 1017.48 1017.91 1018.05 1018.09 1018.11 1018.21 1018.29 1018.41 1018.64 1018.55 1018.16 1017.75 1017.11 1016.93 1017.33 1017.45 1017.61 1017.61 1017.74 1017.99 1018.08 1018.08 1018.22 1018.33 1018.43 1018.66 1018.87 1018.92 1018.97 1019.10 1019.31 1019.56 1019.73 1019.89 1020.22 1020.61 1020.90 1021.12 1021.40
1017.00 1017.27 1017.60 1017.85 1017.96 1018.11 1018.21 1018.31 1018.46 1018.59 1018.61 1018.58 1018.70 1019.03 1018.51 1017.83 1017.39 1017.33 1017.53 1017.57 1017.69 1017.78 1017.69 1018.07 1018.17 1018.12 1018.33 1018.42 1018.47 1018.77 1019.08 1019.18 1019.06 1018.97 1018.88 1018.94 1019.13 1019.35 1019.73 1019.96 1020.30 1020.58 1020.91
1017.52 1017.62 1017.70 1017.88 1018.05 1018.18 1018.33 1018.50 1018.58 1018.62 1018.63 1018.57 1018.71 1018.72 1018.69 1018.82 1018.52 1017.92 1017.54 1017.67 1017.71 1017.99 1018.04 1018.14 1018.44 1018.50 1018.62 1018.82 1019.06 1019.29 1019.42 1019.53 1019.28 1019.09 1018.93 1018.63 1018.54 1018.74 1018.97 1019.41 1019.58 1019.70 1020.04
1017.66 1017.83 1017.93 1017.96 1018.03 1017.97 1018.10 1018.27 1018.38 1018.48 1018.54 1018.54 1018.50 1018.47 1018.52 1018.68 1018.75 1018.77 1018.11 1018.08 1017.99 1018.26 1018.44 1018.34 1018.30 1018.34 1018.52 1018.73 1019.05 1019.55 1019.71 1019.66 1019.45 1019.21 1018.89 1018.66 1018.41 1018.13 1018.27 1018.57 1018.69 1019.19 1019.35
1017.54 1017.81 1018.08 1018.09 1018.01 1017.96 1018.07 1018.07 1018.14 1018.29 1018.46 1018.44 1018.44 1018.42 1018.26 1018.32 1018.51 1018.59 1018.70 1018.44 1018.42 1018.44 1018.14 1017.90 1018.18 1018.70 1019.06 1019.25 1019.92 1020.08 1020.02 1019.82 1019.69 1019.34 1019.10 1018.70 1018.44 1018.49 1018.37 1018.14 1018.42 1018.14 1018.55
1017.42 1017.74 1018.11 1018.12 1018.05 1018.03 1018.11 1018.05 1018.06 1018.11 1018.33 1018.26 1018.10 1018.10 1018.06 1017.98 1018.06 1018.41 1018.55 1018.66 1018.58 1018.62 1018.45 1018.42 1018.83 1019.19 1019.46 1019.50 1020.11 1020.37 1020.23 1020.08 1019.88 1019.58 1019.38 1019.11 1018.92 1018.92 1018.87 1018.57 1018.37 1017.95 1018.08
1017.42 1017.80 1018.16 1018.16 1018.13 1018.18 1018.10 1018.00 1018.03 1018.01 1018.13 1018.02 1017.82 1017.76 1017.73 1017.81 1018.02 1018.15 1018.28 1018.50 1018.66 1018.61 1018.69 1018.66 1019.20 1019.58 1020.03 1020.56 1020.72 1020.39 1020.20 1020.26 1020.08 1019.84 1019.51 1019.30 1019.19 1019.15 1018.98 1018.64 1018.34 1018.29 1018.48
1017.91 1018.10 1018.27 1018.42 1018.35 1018.30 1018.19 1018.15 1018.08 1018.03 1018.06 1018.30 1018.25 1018.27 1018.16 1018.32 1018.28 1018.40 1018.35 1018.27 1018.41 1018.74 1018.81 1018.68 1019.49 1020.26 1020.60 1020.68 1021.20 1020.73 1020.68 1020.72 1020.41 1020.12 1019.82 1019.38 1018.98 1019.07 1018.89 1018.59 1018.44 1018.71 1019.09
1018.30 1018.30 1018.38 1018.61 1018.72 1018.67 1018.40 1018.26 1018.18 1018.32 1018.44 1018.60 1018.41 1018.61 1018.60 1018.61 1018.55 1018.71 1018.66 1018.77 1018.90 1018.98 1019.19 1019.41 1020.12 1020.66 1020.84 1020.61 1020.95 1020.94 1021.11 1020.95 1020.92 1020.44 1020.43 1020.07 1019.59 1019.21 1019.20 1019.24 1019.29 1019.45 1019.61
1018.55 1018.61 1018.58 1018.71 1018.81 1018.88 1018.75 1018.46 1018.63 1018.57 1018.75 1018.89 1018.81 1018.78 1018.80 1018.74 1018.70 1018.88 1019.17 1019.05 1019.30 1019.39 1019.62 1020.19 1020.54 1020.95 1020.73 1020.81 1021.00 1021.22 1021.26 1021.27 1021.14 1021.06 1020.84 1020.59 1020.46 1020.34 1020.27 1020.06 1020.00 1020.07 1020.25
1018.61 1018.90 1018.97 1018.91 1018.92 1019.09 1019.09 1018.78 1018.94 1018.83 1018.68 1018.87 1019.04 1018.94 1019.01 1019.08 1019.26 1019.24 1019.49 1019.27 1019.65 1019.75 1019.89 1020.16 1020.74 1021.17 1021.35 1021.41 1021.30 1021.45 1021.42 1021.40 1021.40 1021.39 1021.18 1021.08 1020.89 1020.76 1020.68 1020.65 1020.65 1020.71 1020.80
1018.59 1018.90 1019.25 1019.25 1019.24 1019.21 1019.33 1019.37 1019.32 1019.23 1019.19 1019.17 1019.68 1019.62 1019.59 1019.51 1019.77 1019.85 1020.04 1020.08 1020.25 1020.51 1020.64 1020.68 1021.21 1021.50 1021.75 1021.84 1021.93 1021.73 1021.51 1021.59 1021.36 1021.52 1021.39 1021.28 1021.22 1021.06 1020.93 1020.95 1021.01 1021.14 1021.12
1018.77 1018.98 1019.30 1019.66 1019.81 1019.76 1019.87 1019.82 1020.02 1019.96 1019.92 1019.88 1020.29 1020.43 1020.53 1020.41 1020.49 1020.72 1020.55 1020.89 1020.84 1020.90 1020.96 1021.06 1021.48 1021.76 1021.98 1022.17 1022.15 1021.97 1021.49 1021.38 1021.39 1021.37 1021.31 1021.37 1021.31 1021.27 1021.24 1021.27 1021.32 1021.39 1021.42
1018.95 1019.41 1019.61 1019.95 1020.13 1020.20 1020.21 1020.21 1020.18 1020.47 1020.52 1020.51 1020.86 1021.10 1021.18 1021.25 1021.12 1021.28 1020.93 1021.18 1021.19 1021.34 1021.51 1021.59 1021.63 1021.89 1021.84 1022.08 1022.10 1022.12 1022.03 1021.76 1021.53 1021.86 1021.77 1021.27 1021.27 1021.19 1021.11 1021.14 1021.30 1021.45 1021.57
1019.46 1019.62 1019.84 1020.14 1020.27 1020.29 1020.36 1020.36 1020.56 1020.46 1020.69 1021.06 1021.11 1021.62 1021.48 1021.64 1021.96 1021.75 1021.61 1021.83 1021.91 1021.64 1021.98 1022.01 1021.96 1021.95 1021.93 1022.51 1022.27 1022.54 1022.59 1022.44 1022.17 1022.19 1022.13 1021.75 1021.32 1021.49 1021.28 1021.26 1021.48 1021.67 1021.64
1019.86 1019.91 1019.94 1020.13 1020.47 1020.58 1020.63 1020.66 1020.66 1020.73 1021.41 1021.93 1022.02 1021.65 1021.90 1022.52 1022.62 1022.32 1022.11 1022.26 1022.00 1022.14 1022.17 1022.22 1022.03 1021.92 1022.00 1022.65 1023.17 1023.16 1023.00 1023.03 1022.76 1022.47 1022.60 1022.01 1021.57 1021.61 1021.28 1021.25 1021.46 1021.61 1021.44
1019.80 1020.24 1020.19 1020.42 1020.74 1020.82 1021.18 1021.19 1021.35 1021.19 1021.65 1022.14 1022.47 1022.23 1022.38 1022.68 1022.71 1022.41 1022.28 1022.36 1022.10 1022.36 1022.45 1022.34 1022.57 1022.33 1022.57 1022.80 1023.00 1023.17 1023.26 1023.08 1022.78 1022.52 1022.81 1022.55 1021.85 1021.81 1021.47 1021.25 1021.39 1021.50 1021.43
1020.05 1020.47 1020.52 1020.74 1020.95 1021.00 1021.46 1021.66 1021.69 1021.45 1021.78 1022.30 1022.42 1022.30 1022.26 1022.32 1022.58 1022.57 1022.41 1022.48 1022.36 1022.58 1022.97 1022.94 1023.01 1022.81 1023.04 1023.22 1023.35 1023.41 1023.29 1023.22 1022.98 1022.56 1022.71 1022.93 1022.35 1022.16 1021.65 1021.28 1021.23 1021.36 1021.34
1020.28 1020.61 1020.87 1020.98 1021.06 1021.32 1021.47 1021.74 1021.73 1021.32 1021.97 1022.17 1022.17 1022.25 1022.33 1022.25 1022.42 1022.56 1022.48 1022.51 1022.48 1022.53 1022.68 1022.73 1022.86 1022.81 1022.96 1023.07 1023.39 1023.46 1023.46 1023.62 1023.42 1023.07 1023.11 1023.31 1023.02 1022.77 1022.28 1021.28 1021.16 1021.07 1021.05
Thickness
5708 5708 5709 5708 5707 5705 5704 5703 5700 5699 5697 5696 5694 5692 5690 5688 5686 5684 5680 5677 5673 5670 5666 5664 5660 5655 5650 5646 5642 5638 5634 5630 5627 5624 5622 5620 5618 5617 5616 5614 5613 5612 5610
5706 5705 5705 5704 5703 5701 5700 5699 5698 5697 5695 5694 5693 5691 5689 5686 5683 5680 5677 5674 5670 5667 5662 5659 5656 5652 5647 5644 5639 5635 5630 5625 5622 5618 5615 5612 5611 5609 5608 5606 5605 5604 5603
5702 5701 5701 5701 5700 5698 5696 5695 5694 5692 5690 5690 5689 5689 5687 5684 5682 5678 5674 5670 5668 5664 5660 5656 5653 5649 5645 5641 5637 5632 5628 5623 5618 5612 5609 5606 5604 5602 5601 5599 5598 5597 5595
5698 5698 5697 5697 5697 5695 5692 5691 5690 5689 5688 5687 5686 5686 5686 5683 5679 5675 5671 5668 5665 5662 5659 5654 5650 5646 5642 5638 5634 5629 5624 5619 5615 5610 5605 5602 5599 5596 5594 5592 5591 5590 5588
5696 5695 5694 5693 5693 5692 5689 5688 5687 5686 5684 5684 5682 5682 5681 5679 5676 5673 5669 5666 5663 5659 5653 5652 5648 5642 5638 5634 5630 5626 5622 5617 5610 5606 5602 5599 5595 5592 5588 5586 5585 5583 5581
5691 5691 5692 5690 5688 5688 5686 5685 5683 5682 5680 5678 5676 5676 5675 5673 5671 5668 5666 5663 5659 5656 5651 5645 5641 5637 5634 5630 5625 5620 5617 5614 5608 5603 5598 5594 5590 5587 5583 5580 5578 5575 5574
5688 5687 5686 5687 5685 5682 5681 5681 5680 5676 5674 5674 5668 5668 5669 5669 5669 5664 5660 5657 5654 5650 5644 5640 5636 5632 5630 5626 5621 5616 5612 5610 5605 5601 5596 5591 5586 5582 5579 5575 5573 5570 5567
5682 5682 5680 5680 5680 5677 5676 5675 5674 5671 5670 5668 5659 5657 5653 5659 5663 5663 5657 5651 5645 5642 5637 5632 5629 5626 5622 5618 5615 5610 5607 5604 5601 5597 5593 5588 5584 5581 5577 5571 5566 5563 5559
5675 5674 5672 5670 5669 5668 5667 5666 5663 5660 5657 5658 5654 5645 5643 5646 5650 5652 5648 5644 5638 5633 5629 5623 5620 5617 5613 5610 5607 5603 5600 5597 5595 5592 5589 5586 5582 5577 5571 5568 5563 5557 5552
5663 5662 5662 5661 5660 5660 5658 5655 5654 5652 5650 5648 5647 5643 5641 5635 5630 5631 5639 5634 5630 5623 5619 5615 5610 5606 5602 5599 5595 5593 5590 5586 5585 5584 5582 5581 5579 5574 5569 5562 5558 5556 5552
5653 5652 5652 5652 5652 5652 5651 5649 5647 5645 5643 5641 5639 5637 5635 5630 5626 5620 5622 5621 5620 5614 5608 5605 5601 5598 5594 5591 5587 5582 5580 5577 5576 5574 5573 5573 5572 5571 5566 5561 5556 5548 5543
5645 5642 5641 5641 5642 5643 5642 5642 5641 5638 5635 5634 5631 5630 5629 5625 5619 5615 5610 5611 5607 5603 5603 5601 5593 5587 5582 5579 5573 5570 5568 5567 5565 5565 5563 5564 5563 5561 5560 5557 5550 5546 5538
5636 5634 5631 5631 5633 5632 5632 5631 5632 5631 5627 5626 5626 5624 5622 5620 5617 5611 5606 5600 5597 5594 5591 5589 5580 5576 5572 5569 5563 5560 5558 5556 5555 5555 5553 5553 5553 5551 5549 5547 5544 5543 5532
5626 5623 5621 5621 5622 5621 5622 5622 5623 5622 5620 5619 5620 5619 5617 5614 5608 5604 5600 5594 5588 5586 5583 5579 5572 5565 5560 5554 5550 5550 5548 5546 5545 5544 5544 5545 5544 5542 5540 5539 5537 5534 5529
5611 5611 5610 5610 5610 5611 5611 5611 5612 5612 5611 5607 5606 5603 5602 5598 5595 5590 5588 5587 5584 5578 5576 5574 5564 5551 5546 5543 5537 5538 5537 5534 5534 5534 5534 5537 5538 5535 5533 5531 5529 5523 5515
5597 5599 5599 5598 5597 5597 5599 5600 5601 5599 5598 5595 5595 5591 5588 5586 5584 5579 5577 5573 5569 5567 5565 5558 5547 5540 5535 5534 5529 5527 5524 5523 5522 5524 5523 5525 5526 5526 5523 5520 5516 5511 5505
5585 5585 5587 5586 5586 5585 5586 5589 5586 5587 5584 5582 5581 5580 5577 5576 5574 5569 5563 5563 5557 5555 5553 5541 5536 5529 5528 5524 5520 5516 5514 5512 5512 5512 5513 5514 5513 5511 5509 5508 5505 5500 5495
5573 5572 5572 5574 5574 5572 5572 5575 5574 5574 5575 5573 5570 5569 5566 5563 5558 5558 5553 5553 5546 5542 5540 5539 5525 5519 5515 5512 5510 5506 5505 5504 5504 5504 5504 5503 5502 5501 5499 5497 5494 5490 5486
5562 5560 5558 5559 5560 5561 5560 5559 5560 5561 5561 5561 5554 5552 5551 5550 5546 5543 5539 5536 5532 5527 5523 5521 5513 5509 5504 5501 5498 5498 5498 5497 5497 5495 5495 5494 5493 5492 5491 5488 5485 5482 5479
5549 5548 5546 5543 5543 5544 5543 5544 5542 5543 5543 5544 5538 5535 5532 5533 5530 5526 5526 5521 5519 5517 5514 5511 5505 5499 5495 5491 5490 5489 5492 5492 5490 5488 5487 5486 5485 5483 5481 5479 5476 5474 5472
5537 5533 5532 5529 5528 5529 5530 5530 5529 5527 5526 5527 5523 5519 5518 5516 5516 5513 5515 5511 5509 5505 5501 5499 5497 5493 5491 5486 5484 5482 5480 5481 5482 5477 5476 5478 5477 5475 5473 5472 5469 5466 5464
5522 5521 5520 5518 5517 5516 5516 5517 5515 5516 5515 5511 5511 5506 5507 5505 5500 5501 5502 5498 5496 5497 5489 5486 5487 5486 5484 5475 5475 5471 5468 5466 5468 5466 5465 5465 5467 5464 5463 5461 5458 5455 5454
5507 5508 5509 5508 5505 5504 5504 5504 5506 5505 5499 5494 5494 5499 5497 5490 5489 5491 5491 5487 5488 5485 5482 5478 5479 5477 5474 5465 5458 5457 5457 5454 5455 5455 5451 5453 5456 5453 5453 5451 5448 5446 5445
5496 5493 5495 5495 5492 5492 5490 5490 5489 5491 5488 5485 5482 5484 5484 5481 5481 5483 5481 5479 5480 5475 5472 5470 5466 5466 5460 5455 5451 5447 5445 5445 5446 5445 5441 5438 5444 5442 5442 5441 5438 5435 5434
5484 5480 5481 5480 5478 5479 5476 5475 5476 5480 5480 5476 5476 5477 5478 5477 5474 5473 5474 5471 5470 5466 5460 5458 5454 5453 5448 5444 5440 5437 5436 5434 5434 5436 5432 5427 5430 5429 5430 5430 5428 5425 5422
5472 5470 5469 5468 5468 5466 5467 5467 5469 5475 5470 5470 5470 5469 5469 5469 5467 5466 5466 5464 5461 5459 5455 5452 5448 5445 5440 5436 5431 5428 5425 5420 5420 5420 5418 5413 5413 5413 5411 5419 5416 5414 5410